Torna al catalogo

STARLINK-37491

AttivoComunicazioniVLEO
NORAD 69166·PAYLOAD·🇺🇸 United States

Lanciato May 21, 2026 da Cape Canaveral Space Force Station

Loading…

Prossimi Passaggi (prossime 24 ore)

TLE

AggiornatoSource: CelesTrak SupGP

Epoca: Sep 14, 2026, 23:14 UTC

1 69166C 26111U   26257.96854167  .00035384  00000+0  10456-2 0  2574
2 69166  53.1576  91.5109 0001287  83.6809 163.6153 15.34366798    12

Traccia STARLINK-37491 in tempo reale con AllMySat

Download on the App Store